Hourly Data Report for June 24, 2021

WRIGLEY A
NORTHWEST TERRITORIES
Current Station Operator: NAVCAN

63°12'35.000" N
123°26'12.000" W
149.70 m
2204005
YWY

Download Data

Hourly Data (June 2021)
Hourly Data Report for June 24, 2021
TIME
LST
Temp Definition
°C
Dew Point Definition
°C
Rel Hum Definition
%
Precip. Amount Definition
mm

Wind Dir Definition
10's deg

Wind Spd Definition
km/h
Visibility Definition
km
Stn Press Definition
kPa
Hmdx Definition


Wind Chill Definition


Weather Definition


00:00 18.9 10.2 57 LegendMM 14 7 LegendMM 98.52     LegendNANA
01:00 18.1 9.8 58 LegendMM 16 10 LegendMM 98.52     LegendNANA
02:00 19.9 9.5 51 LegendMM 12 11 LegendMM 98.51     LegendNANA
03:00 16.7 9.8 63 LegendMM 16 13 LegendMM 98.51     LegendNANA
04:00 14.6 9.8 72 LegendMM 17 8 LegendMM 98.49     LegendNANA
05:00 14.6 10.2 75 LegendMM 16 3 LegendMM 98.48     LegendNANA
06:00 16.2 10.4 68 LegendMM 17 5 LegendMM 98.44     LegendNANA
07:00 17.8 10.4 62 LegendMM 14 14 LegendMM 98.40     LegendNANA
08:00 19.8 10.9 56 LegendMM 15 14 LegendMM 98.33     LegendNANA
09:00 21.6 11.2 51 LegendMM 15 13 LegendMM 98.27     LegendNANA
10:00 24.0 11.5 45 LegendMM 14 12 LegendMM 98.17 26   LegendNANA
11:00 26.5 10.8 37 LegendMM 14 14 LegendMM 98.10 28   LegendNANA
12:00 28.5 10.6 32 LegendMM 12 5 LegendMM 98.01 30   LegendNANA
13:00 27.9 8.0 28 LegendMM 20 10 LegendMM 98.01 28   LegendNANA
14:00 28.2 9.1 30 LegendMM 19 8 LegendMM 97.99 29   LegendNANA
15:00 29.6 8.8 27 LegendMM 22 7 LegendMM 97.96 30   LegendNANA
16:00 28.2 7.1 26 LegendMM 24 9 LegendMM 97.96 28   LegendNANA
17:00 29.1 7.0 24 LegendMM 32 10 LegendMM 97.95 29   LegendNANA
18:00 27.9 8.0 28 LegendMM 33 11 LegendMM 97.98 28   LegendNANA
19:00 27.3 8.1 29 LegendMM 31 19 LegendMM 98.02 28   LegendNANA
20:00 27.4 8.8 30 LegendMM 33 8 LegendMM 98.06 28   LegendNANA
21:00 26.1 8.9 33 LegendMM 31 12 LegendMM 98.13 27   LegendNANA
22:00 24.2 9.1 38 LegendMM 32 5 LegendMM 98.19 25   LegendNANA
23:00 21.0 9.8 48 LegendMM 4 1 LegendMM 98.25     LegendNANA

Notes on Data Quality.

Legend

  • E = Estimated
  • M = Missing
  • NA = Not Available*
  • [empty] = Indicates an unobserved value
Date modified: